Terminal Aerodrome Forecast
Issued by NWS Bismarck, ND

Home | Current Version | Previous Version | Graphics & Text | Print | Product List | Glossary On
Versions: 1 2 3 4 5 6 7 8 9 10 11 12
000
FTUS43 KBIS 152300
TAFBIS
TAF
KBIS 152328Z 1600/1624 22007KT P6SM SKC
     FM160800 18003KT P6SM SKC=

USA.gov is the U.S. government's official web portal to all federal, state and local government web resources and services.